| time (UTC) | temp F | wind direction | speed knots | gust knots | rain 1hr in | rain 24hr in | rain mn in | humidity % | barometer mb |
| 20260504021608 | 58 | 244 | 0.0 | 0.0 | 0.00 | 0.00 | 0.00 | 66 | 1005.9 |
| 20260504021104 | 58 | 244 | 0.0 | 0.0 | 0.00 | 0.00 | 0.00 | 65 | 1006.0 |
| 20260504020601 | 59 | 244 | 0.0 | 0.0 | 0.00 | 0.00 | 0.00 | 66 | 1005.9 |
| 20260504020057 | 59 | 244 | 0.0 | 0.0 | 0.00 | 0.00 | 0.00 | 63 | 1005.8 |
| 20260504015554 | 59 | 244 | 0.0 | 0.0 | 0.00 | 0.00 | 0.00 | 62 | 1005.8 |
| 20260504015049 | 59 | 244 | 0.0 | 0.0 | 0.00 | 0.00 | 0.00 | 61 | 1005.7 |
| 20260504014546 | 60 | 244 | 0.0 | 0.0 | 0.00 | 0.00 | 0.00 | 60 | 1005.8 |
| 20260504014043 | 60 | 244 | 0.0 | 0.0 | 0.00 | 0.00 | 0.00 | 60 | 1005.8 |
| 20260504013541 | 61 | 244 | 0.0 | 0.0 | 0.00 | 0.00 | 0.00 | 59 | 1005.7 |
| 20260504013038 | 61 | 245 | 0.0 | 0.0 | 0.00 | 0.00 | 0.00 | 58 | 1005.7 |
| 20260504012535 | 62 | 244 | 0.0 | 0.0 | 0.00 | 0.00 | 0.00 | 57 | 1005.6 |
| 20260504012033 | 62 | 245 | 0.0 | 0.0 | 0.00 | 0.00 | 0.00 | 56 | 1005.7 |
| 20260504011529 | 63 | 244 | 0.0 | 0.0 | 0.00 | 0.00 | 0.00 | 54 | 1005.6 |
| 20260504011025 | 63 | 245 | 0.0 | 0.0 | 0.00 | 0.00 | 0.00 | 54 | 1005.5 |
| 20260504010521 | 64 | 245 | 0.0 | 0.0 | 0.00 | 0.00 | 0.00 | 53 | 1005.4 |
| 20260504010017 | 64 | 245 | 0.0 | 0.9 | 0.00 | 0.00 | 0.00 | 52 | 1005.3 |
| 20260504005514 | 65 | 245 | 0.0 | 0.0 | 0.00 | 0.00 | 0.00 | 51 | 1005.4 |
| 20260504005012 | 65 | 243 | 0.9 | 0.9 | 0.00 | 0.00 | 0.00 | 51 | 1005.4 |
| 20260504004510 | 66 | 245 | 0.9 | 0.9 | 0.00 | 0.00 | 0.00 | 50 | 1005.2 |
| 20260504004006 | 66 | 238 | 0.9 | 1.7 | 0.00 | 0.00 | 0.00 | 49 | 1005.5 |
| 20260504003502 | 66 | 223 | 0.9 | 0.9 | 0.00 | 0.00 | 0.00 | 48 | 1005.2 |
| 20260504002959 | 67 | 252 | 2.6 | 2.6 | 0.00 | 0.00 | 0.00 | 48 | 1005.4 |
| 20260504002456 | 67 | 229 | 0.9 | 1.7 | 0.00 | 0.00 | 0.00 | 48 | 1005.5 |
| 20260504001954 | 67 | 237 | 1.7 | 1.7 | 0.00 | 0.00 | 0.00 | 47 | 1005.5 |
| 20260504001451 | 67 | 242 | 1.7 | 2.6 | 0.00 | 0.00 | 0.00 | 47 | 1005.3 |
| 20260504000947 | 67 | 249 | 2.6 | 2.6 | 0.00 | 0.00 | 0.00 | 47 | 1005.3 |
| 20260504000445 | 67 | 274 | 2.6 | 2.6 | 0.00 | 0.00 | 0.00 | 47 | 1005.4 |
| 20260503235942 | 68 | 236 | 0.9 | 0.9 | 0.00 | 0.00 | 0.00 | 46 | 1005.6 |
| 20260503235439 | 68 | 274 | 3.5 | 5.2 | 0.00 | 0.00 | 0.00 | 46 | 1005.4 |
| 20260503234937 | 68 | 240 | 4.3 | 6.1 | 0.00 | 0.00 | 0.00 | 46 | 1005.3 |
| 20260503234434 | 68 | 255 | 5.2 | 7.0 | 0.00 | 0.00 | 0.00 | 45 | 1005.5 |
| 20260503233932 | 68 | 240 | 2.6 | 2.6 | 0.00 | 0.00 | 0.00 | 46 | 1005.4 |
| 20260503233428 | 68 | 257 | 5.2 | 6.1 | 0.00 | 0.00 | 0.00 | 45 | 1005.4 |
| 20260503232925 | 68 | 301 | 2.6 | 4.3 | 0.00 | 0.00 | 0.00 | 44 | 1005.4 |
| 20260503232422 | 68 | 250 | 4.3 | 5.2 | 0.00 | 0.00 | 0.00 | 44 | 1005.6 |
| 20260503231920 | 68 | 251 | 2.6 | 4.3 | 0.00 | 0.00 | 0.00 | 44 | 1005.4 |
| 20260503231417 | 68 | 229 | 5.2 | 7.0 | 0.00 | 0.00 | 0.00 | 44 | 1005.6 |
| 20260503230913 | 69 | 261 | 3.5 | 4.3 | 0.00 | 0.00 | 0.00 | 43 | 1005.7 |
| 20260503230409 | 69 | 267 | 2.6 | 5.2 | 0.00 | 0.00 | 0.00 | 44 | 1005.6 |
| 20260503225908 | 69 | 251 | 6.1 | 7.0 | 0.00 | 0.00 | 0.00 | 43 | 1005.7 |
| 20260503225403 | 69 | 245 | 5.2 | 7.8 | 0.00 | 0.00 | 0.00 | 44 | 1005.8 |
| 20260503224900 | 69 | 231 | 2.6 | 4.3 | 0.00 | 0.00 | 0.00 | 45 | 1005.8 |
| 20260503224357 | 68 | 232 | 2.6 | 2.6 | 0.00 | 0.00 | 0.00 | 45 | 1005.5 |
| 20260503223855 | 68 | 272 | 4.3 | 6.1 | 0.00 | 0.00 | 0.00 | 45 | 1005.6 |
| 20260503223352 | 68 | 237 | 2.6 | 5.2 | 0.00 | 0.00 | 0.00 | 45 | 1005.7 |
| 20260503222847 | 68 | 250 | 4.3 | 6.1 | 0.00 | 0.00 | 0.00 | 45 | 1005.8 |
| 20260503222347 | 68 | 230 | 4.3 | 7.0 | 0.00 | 0.00 | 0.00 | 45 | 1006.0 |
| 20260503221844 | 68 | 245 | 5.2 | 7.0 | 0.00 | 0.00 | 0.00 | 44 | 1005.9 |
| 20260503221343 | 68 | 251 | 3.5 | 4.3 | 0.00 | 0.00 | 0.00 | 44 | 1006.0 |
| 20260503220838 | 68 | 265 | 3.5 | 5.2 | 0.00 | 0.00 | 0.00 | 44 | 1006.0 |
| 20260503220335 | 68 | 245 | 2.6 | 2.6 | 0.00 | 0.00 | 0.00 | 44 | 1005.9 |
| 20260503215832 | 68 | 248 | 4.3 | 6.1 | 0.00 | 0.00 | 0.00 | 44 | 1006.2 |
| 20260503215329 | 68 | 246 | 4.3 | 5.2 | 0.00 | 0.00 | 0.00 | 44 | 1005.8 |
| 20260503214826 | 68 | 246 | 5.2 | 7.8 | 0.00 | 0.00 | 0.00 | 44 | 1006.3 |
| 20260503214324 | 67 | 240 | 4.3 | 6.1 | 0.00 | 0.00 | 0.00 | 44 | 1006.0 |
| 20260503213821 | 67 | 210 | 6.1 | 8.7 | 0.00 | 0.00 | 0.00 | 44 | 1006.2 |
| 20260503213319 | 67 | 259 | 4.3 | 6.1 | 0.00 | 0.00 | 0.00 | 44 | 1006.2 |
| 20260503212815 | 67 | 241 | 4.3 | 6.1 | 0.00 | 0.00 | 0.00 | 44 | 1006.5 |
| 20260503212313 | 68 | 223 | 3.5 | 4.3 | 0.00 | 0.00 | 0.00 | 44 | 1006.5 |
| 20260503211810 | 67 | 253 | 2.6 | 2.6 | 0.00 | 0.00 | 0.00 | 45 | 1006.6 |
| 20260503211307 | 66 | 219 | 6.1 | 7.0 | 0.00 | 0.00 | 0.00 | 44 | 1006.6 |
| 20260503210807 | 66 | 195 | 6.1 | 11.3 | 0.00 | 0.00 | 0.00 | 44 | 1006.8 |
| 20260503210305 | 66 | 170 | 5.2 | 7.0 | 0.00 | 0.00 | 0.00 | 44 | 1006.9 |
| 20260503205800 | 66 | 224 | 2.6 | 4.3 | 0.00 | 0.00 | 0.00 | 44 | 1006.7 |
| 20260503205256 | 66 | 213 | 4.3 | 6.1 | 0.00 | 0.00 | 0.00 | 44 | 1007.1 |
| 20260503204753 | 66 | 212 | 6.1 | 7.8 | 0.00 | 0.00 | 0.00 | 44 | 1007.0 |
| 20260503204251 | 66 | 247 | 5.2 | 7.8 | 0.00 | 0.00 | 0.00 | 44 | 1007.2 |
| 20260503203748 | 66 | 236 | 2.6 | 4.3 | 0.00 | 0.00 | 0.00 | 46 | 1007.2 |
| 20260503203245 | 65 | 235 | 8.7 | 12.2 | 0.00 | 0.00 | 0.00 | 48 | 1007.2 |
| 20260503202742 | 65 | 191 | 9.6 | 12.2 | 0.00 | 0.00 | 0.00 | 48 | 1007.5 |
| 20260503202240 | 65 | 242 | 6.1 | 7.0 | 0.00 | 0.00 | 0.00 | 48 | 1007.5 |
| 20260503201737 | 64 | 258 | 5.2 | 8.7 | 0.00 | 0.00 | 0.00 | 50 | 1007.6 |
| 20260503201235 | 64 | 199 | 7.8 | 12.2 | 0.00 | 0.00 | 0.00 | 49 | 1007.7 |
| 20260503200731 | 64 | 223 | 4.3 | 6.1 | 0.00 | 0.00 | 0.00 | 50 | 1007.8 |
| 20260503200228 | 64 | 238 | 7.8 | 8.7 | 0.00 | 0.00 | 0.00 | 51 | 1008.0 |
| 20260503195724 | 64 | 205 | 8.7 | 11.3 | 0.00 | 0.00 | 0.00 | 49 | 1008.4 |
| 20260503195222 | 64 | 217 | 5.2 | 7.0 | 0.00 | 0.00 | 0.00 | 49 | 1008.5 |
| 20260503194719 | 64 | 147 | 6.1 | 12.2 | 0.00 | 0.00 | 0.00 | 49 | 1008.6 |
| 20260503194215 | 63 | 193 | 4.3 | 6.1 | 0.00 | 0.00 | 0.00 | 49 | 1008.7 |
| 20260503193711 | 62 | 215 | 5.2 | 7.0 | 0.00 | 0.00 | 0.00 | 50 | 1008.5 |
| 20260503193207 | 63 | 197 | 7.0 | 8.7 | 0.00 | 0.00 | 0.00 | 49 | 1008.6 |
| 20260503192703 | 64 | 250 | 7.0 | 9.6 | 0.00 | 0.00 | 0.00 | 47 | 1009.0 |
| 20260503192158 | 62 | 229 | 6.1 | 7.0 | 0.00 | 0.00 | 0.00 | 47 | 1008.8 |
| 20260503191655 | 62 | 219 | 3.5 | 4.3 | 0.00 | 0.00 | 0.00 | 49 | 1008.7 |
| 20260503191152 | 62 | 210 | 5.2 | 7.8 | 0.00 | 0.00 | 0.00 | 47 | 1008.5 |
| 20260503190649 | 62 | 211 | 9.6 | 14.8 | 0.00 | 0.00 | 0.00 | 46 | 1008.9 |
| 20260503190146 | 63 | 204 | 2.6 | 4.3 | 0.00 | 0.00 | 0.00 | 48 | 1008.7 |
| 20260503185642 | 62 | 187 | 3.5 | 6.1 | 0.00 | 0.00 | 0.00 | 48 | 1008.8 |
| 20260503185138 | 63 | 183 | 7.0 | 8.7 | 0.00 | 0.00 | 0.00 | 47 | 1008.6 |
| 20260503184633 | 64 | 210 | 5.2 | 7.0 | 0.00 | 0.00 | 0.00 | 46 | 1008.7 |
| 20260503184130 | 63 | 237 | 2.6 | 2.6 | 0.00 | 0.00 | 0.00 | 48 | 1008.8 |
| 20260503183626 | 62 | 212 | 6.1 | 7.8 | 0.00 | 0.00 | 0.00 | 48 | 1009.1 |
| 20260503183124 | 62 | 169 | 4.3 | 6.1 | 0.00 | 0.00 | 0.00 | 50 | 1009.2 |
| 20260503182622 | 61 | 277 | 4.3 | 5.2 | 0.00 | 0.00 | 0.00 | 51 | 1009.2 |
| 20260503182120 | 62 | 243 | 7.8 | 9.6 | 0.00 | 0.00 | 0.00 | 49 | 1009.1 |
| 20260503181616 | 61 | 236 | 3.5 | 5.2 | 0.00 | 0.00 | 0.00 | 52 | 1009.2 |
| 20260503181113 | 61 | 147 | 7.8 | 9.6 | 0.00 | 0.00 | 0.00 | 51 | 1009.4 |
| 20260503180610 | 60 | 238 | 5.2 | 6.1 | 0.00 | 0.00 | 0.00 | 51 | 1009.6 |
| 20260503180108 | 60 | 201 | 4.3 | 6.1 | 0.00 | 0.00 | 0.00 | 53 | 1009.8 |
| 20260503175605 | 59 | 214 | 7.0 | 7.8 | 0.00 | 0.00 | 0.00 | 53 | 1009.8 |
| 20260503175102 | 60 | 224 | 7.8 | 8.7 | 0.00 | 0.00 | 0.00 | 53 | 1009.9 |
| 20260503174558 | 60 | 243 | 2.6 | 2.6 | 0.00 | 0.00 | 0.00 | 55 | 1010.0 |
| 20260503174055 | 60 | 185 | 3.5 | 4.3 | 0.00 | 0.00 | 0.00 | 56 | 1010.3 |
| 20260503173550 | 59 | 236 | 3.5 | 6.1 | 0.00 | 0.00 | 0.00 | 57 | 1010.4 |
| 20260503173047 | 58 | 128 | 5.2 | 6.1 | 0.00 | 0.00 | 0.00 | 59 | 1010.5 |
| 20260503172544 | 58 | 229 | 3.5 | 4.3 | 0.00 | 0.00 | 0.00 | 59 | 1010.6 |
| 20260503172041 | 56 | 157 | 4.3 | 6.1 | 0.00 | 0.00 | 0.00 | 61 | 1011.0 |
| 20260503171538 | 56 | 217 | 2.6 | 2.6 | 0.00 | 0.00 | 0.00 | 62 | 1011.2 |
| 20260503171035 | 55 | 188 | 7.8 | 12.2 | 0.00 | 0.00 | 0.00 | 62 | 1011.1 |
| 20260503170532 | 55 | 218 | 6.1 | 7.0 | 0.00 | 0.00 | 0.00 | 62 | 1011.1 |
| 20260503150924 | 56 | 265 | 5.2 | 7.0 | 0.00 | 0.00 | 0.00 | 56 | 1012.7 |
| 20260503150421 | 57 | 245 | 4.3 | 5.2 | 0.00 | 0.00 | 0.00 | 56 | 1012.6 |
| 20260503131314 | 53 | 203 | 6.1 | 7.8 | 0.00 | 0.00 | 0.00 | 55 | 1013.4 |
| 20260503130811 | 52 | 215 | 4.3 | 7.0 | 0.00 | 0.00 | 0.00 | 56 | 1013.5 |
| 20260503130309 | 52 | 251 | 3.5 | 5.2 | 0.00 | 0.00 | 0.00 | 57 | 1013.4 |
| 20260503110702 | 49 | 261 | 2.6 | 2.6 | 0.00 | 0.00 | 0.00 | 56 | 1013.0 |
| 20260503110200 | 49 | 277 | 3.5 | 4.3 | 0.00 | 0.00 | 0.00 | 56 | 1013.0 |
| 20260503100126 | 50 | 246 | 2.6 | 4.3 | 0.00 | 0.00 | 0.00 | 52 | 1013.4 |
| 20260503081516 | 48 | 237 | 0.9 | 1.7 | 0.00 | 0.00 | 0.00 | 54 | 1014.1 |
| 20260503081013 | 48 | 242 | 2.6 | 2.6 | 0.00 | 0.00 | 0.00 | 54 | 1014.2 |
| 20260503080509 | 48 | 235 | 2.6 | 2.6 | 0.00 | 0.00 | 0.00 | 54 | 1014.0 |
| 20260503072442 | 47 | 241 | 2.6 | 2.6 | 0.00 | 0.00 | 0.00 | 55 | 1014.3 |
| 20260503071939 | 47 | 247 | 1.7 | 1.7 | 0.00 | 0.00 | 0.00 | 55 | 1014.2 |
| 20260503071436 | 47 | 228 | 1.7 | 1.7 | 0.00 | 0.00 | 0.00 | 56 | 1014.2 |
| 20260503070932 | 47 | 240 | 2.6 | 2.6 | 0.00 | 0.00 | 0.00 | 56 | 1014.4 |
| 20260503070430 | 47 | 244 | 1.7 | 2.6 | 0.00 | 0.00 | 0.00 | 57 | 1014.3 |
| 20260503054843 | 47 | 247 | 0.9 | 1.7 | 0.00 | 0.00 | 0.00 | 58 | 1015.1 |
| 20260503054339 | 47 | 231 | 0.9 | 1.7 | 0.00 | 0.00 | 0.00 | 58 | 1015.1 |
| 20260503053837 | 47 | 214 | 0.9 | 0.9 | 0.00 | 0.00 | 0.00 | 58 | 1015.1 |
| 20260503053335 | 47 | 230 | 0.9 | 0.9 | 0.00 | 0.00 | 0.00 | 58 | 1015.2 |
| 20260503052831 | 46 | 225 | 1.7 | 1.7 | 0.00 | 0.00 | 0.00 | 59 | 1015.3 |
| 20260503052328 | 46 | 235 | 0.9 | 0.9 | 0.00 | 0.00 | 0.00 | 59 | 1015.4 |
| 20260503051824 | 46 | 237 | 1.7 | 1.7 | 0.00 | 0.00 | 0.00 | 59 | 1015.3 |
| 20260503051321 | 46 | 227 | 0.9 | 0.9 | 0.00 | 0.00 | 0.00 | 59 | 1015.2 |
| 20260503050818 | 46 | 231 | 0.9 | 0.9 | 0.00 | 0.00 | 0.00 | 59 | 1015.3 |
| 20260503050314 | 47 | 235 | 0.9 | 1.7 | 0.00 | 0.00 | 0.00 | 59 | 1015.4 |
| 20260503045812 | 47 | 228 | 0.9 | 0.9 | 0.00 | 0.00 | 0.00 | 58 | 1015.3 |
| 20260503045309 | 47 | 215 | 1.7 | 1.7 | 0.00 | 0.00 | 0.00 | 58 | 1015.5 |
| 20260503044805 | 47 | 210 | 0.9 | 1.7 | 0.00 | 0.00 | 0.00 | 58 | 1015.4 |
| 20260503044302 | 47 | 230 | 1.7 | 1.7 | 0.00 | 0.00 | 0.00 | 58 | 1015.5 |
| 20260503043800 | 47 | 234 | 0.9 | 1.7 | 0.00 | 0.00 | 0.00 | 58 | 1015.4 |
| 20260503043257 | 47 | 240 | 0.9 | 0.9 | 0.00 | 0.00 | 0.00 | 58 | 1015.3 |
| 20260503042752 | 47 | 235 | 0.9 | 1.7 | 0.00 | 0.00 | 0.00 | 58 | 1015.5 |
| 20260503042249 | 47 | 233 | 1.7 | 1.7 | 0.00 | 0.00 | 0.00 | 58 | 1015.6 |
| 20260503041745 | 47 | 231 | 0.9 | 0.9 | 0.00 | 0.00 | 0.00 | 57 | 1015.6 |
| 20260503041243 | 47 | 234 | 0.9 | 0.9 | 0.00 | 0.00 | 0.00 | 57 | 1015.2 |
| 20260503040741 | 47 | 233 | 0.9 | 1.7 | 0.00 | 0.00 | 0.00 | 57 | 1015.3 |
| 20260503040238 | 47 | 231 | 0.9 | 0.9 | 0.00 | 0.00 | 0.00 | 57 | 1015.4 |
| 20260503035735 | 47 | 242 | 0.9 | 1.7 | 0.00 | 0.00 | 0.00 | 58 | 1015.6 |
| 20260503035232 | 47 | 233 | 0.0 | 0.9 | 0.00 | 0.00 | 0.00 | 58 | 1015.5 |
| 20260503034729 | 47 | 234 | 1.7 | 1.7 | 0.00 | 0.00 | 0.00 | 57 | 1015.7 |
| 20260503034226 | 48 | 232 | 0.9 | 0.9 | 0.00 | 0.00 | 0.00 | 57 | 1015.9 |
| 20260503033724 | 48 | 234 | 0.0 | 0.9 | 0.00 | 0.00 | 0.00 | 57 | 1015.8 |
| 20260503033221 | 48 | 229 | 1.7 | 1.7 | 0.00 | 0.00 | 0.00 | 56 | 1015.7 |
| 20260503032720 | 48 | 237 | 0.9 | 0.9 | 0.00 | 0.00 | 0.00 | 56 | 1015.8 |
| 20260503032218 | 48 | 233 | 0.9 | 0.9 | 0.00 | 0.00 | 0.00 | 56 | 1016.0 |
| 20260503031714 | 48 | 232 | 0.9 | 0.9 | 0.00 | 0.00 | 0.00 | 56 | 1015.9 |
| 20260503031213 | 48 | 236 | 0.0 | 0.9 | 0.00 | 0.00 | 0.00 | 55 | 1015.9 |
| 20260503030708 | 48 | 230 | 0.9 | 0.9 | 0.00 | 0.00 | 0.00 | 56 | 1015.9 |
| 20260503030205 | 48 | 228 | 0.9 | 0.9 | 0.00 | 0.00 | 0.00 | 56 | 1015.9 |
| 20260503025702 | 48 | 230 | 0.0 | 0.9 | 0.00 | 0.00 | 0.00 | 55 | 1015.8 |
| 20260503025200 | 48 | 235 | 0.0 | 0.0 | 0.00 | 0.00 | 0.00 | 55 | 1016.1 |
| 20260503024656 | 48 | 226 | 0.9 | 0.9 | 0.00 | 0.00 | 0.00 | 55 | 1016.0 |
| 20260503024154 | 48 | 235 | 0.0 | 0.0 | 0.00 | 0.00 | 0.00 | 55 | 1016.1 |
| 20260503023650 | 49 | 235 | 0.0 | 0.0 | 0.00 | 0.00 | 0.00 | 55 | 1015.8 |
| 20260503023147 | 49 | 233 | 0.0 | 0.9 | 0.00 | 0.00 | 0.00 | 55 | 1015.9 |
| 20260503022644 | 49 | 233 | 0.9 | 0.9 | 0.00 | 0.00 | 0.00 | 55 | 1016.0 |
| 20260503022142 | 49 | 227 | 0.9 | 0.9 | 0.00 | 0.00 | 0.00 | 54 | 1015.8 |